Санта-Доминго

Dominican Republic     18˚28′01″N   69˚52′58″W
temp.,
°C
wind,
m/s
gust,
m/s
humid.,
%
clouds,
%
prec.,
mm/h
press.,
hPa
HPBL,
m
2 december, wed
wed223:00+23˚n258935 0.6 1015231
02:00+23˚n259157 0.7 1014240
05:00+22˚nne369275 0.0 1014243
08:00+22˚n378968 0.0 1015322
11:00+27˚ne56688 0.0 10171091
14:00+28˚ne346147 0.0 10141325
17:00+27˚ene347055 0.1 1014517
20:00+24˚ne368244 0.1 1015311
3 december, thu
thu323:00+22˚n368632 0.0 1016224
02:00+22˚nnw368731 0.0 1015195
05:00+21˚nnw36871 0.0 1015206
08:00+22˚n378513 0.0 1016257
11:00+27˚nne467190 0.0 10171046
14:00+28˚ne346390 0.1 10151158
17:00+25˚ene358095 1.1 1014366
20:00+23˚nne358881 1.3 1016293
4 december, fri
fri423:00+22˚n379073 0.0 1017268
02:00+21˚nnw369149 0.1 1016210
05:00+21˚n359054 0.1 1017199
08:00+22˚n358970 0.3 1018250
11:00+26˚ne457076 0.1 10181013
14:00+28˚ne345788 0.1 10161347
17:00+27˚nne356733 0.0 1015517
20:00+23˚nne378217 0.1 1016315
5 december, sat
sat523:00+22˚nnw36852 0.1 1017223
02:00+21˚nnw369026 0.2 1016208
05:00+21˚n359212 0.1 1016161
08:00+21˚nnw358912 0.1 1018184
11:00+26˚nne346832 0.0 1018900
14:00+28˚ne346225 0.0 10151131
17:00+26˚ne357665 0.4 1014560
20:00+23˚n348871 1.1 1016190
6 december, sun
sun623:00+22˚nnw249044 0.6 1017161
02:00+21˚nnw249143 0.6 1015151
05:00+21˚nnw239229 0.0 1014119
08:00+22˚nnw239014 0.0 1016141
11:00+26˚ne34677 0.0 1016930
14:00+28˚ene23619 0.0 10141252
17:00+27˚e34713 0.1 1013565
20:00+23˚ne24803 0.1 1015230